RH
100 100 100 100 100 100 100 87 100 100 100 99 64 99 100 100 97 54 28 20 15 12 14 21 18 21 47 44 39 33 64 59 45 32 26 30 30 30 17 15 20 50 69 85
100 100 100 100 100 100 89 90 94 100 100 100 100 58 97 100 100 100 98 57 31 22 12 11 17 16 28 35 29 26 19 17 15 14 13 13 14 19 26 17 14 28 39 26
100 100 100 97 100 100 97 99 97 100 100 100 100 100 100 99 94 63 71 67 73 46 32 18 11 13 29 27 18 18 16 27 17 15 15 14 14 15 12 11 13 15 20 18
97 98 99 100 100 100 90 85 100 99 100 78 78 81 96 100 100 100 98 92 66 51 33 25 14 10 12 40 36 18 21 20 15 14 14 14 16 16 18 17 14 12 11 16
90 99 100 100 100 100 84 95 100 100 100 100 100 93 100 89 95 95 100 100 100 76 27 18 47 37 27 36 42 51 43 44 29 17 15 14 13 13 14 17 16 15 16 16
82 97 100 100 100 99 85 86 100 100 100 100 100 100 100 100 100 100 100 98 89 100 94 82 74 76 68 68 48 62 61 51 40 29 26 23 18 19 19 14 13 12 15 17
75 86 100 100 100 100 100 97 98 100 100 100 100 100 100 100 99 99 100 100 99 99 84 83 96 90 73 80 97 83 84 95 64 58 59 54 42 46 64 51 30 18 15 16
58 80 96 100 100 100 96 87 100 100 99 100 100 100 100 96 99 97 99 100 99 100 100 100 100 98 92 96 99 100 100 90 88 58 54 61 47 37 48 46 29 24 27 36
38 70 93 100 100 100 100 94 100 95 92 83 91 99 97 96 86 60 56 48 56 74 79 79 75 82 94 96 97 97 99 100 99 84 87 72 54 53 58 55 44 45 42 46
30 57 88 99 100 100 100 99 100 100 96 99 99 99 78 70 60 43 26 24 20 18 37 65 77 70 61 57 63 74 79 82 96 96 90 81 79 70 55 64 80 92 88 93
21 37 77 94 100 100 100 100 99 90 98 98 98 84 51 29 24 23 21 23 20 26 29 49 62 73 72 60 54 45 58 67 74 82 92 90 87 97 91 95 98 99 96 99
17 28 56 80 96 97 75 87 88 62 41 35 32 24 20 16 16 18 19 18 13 20 38 58 66 64 72 68 62 61 50 58 78 89 92 90 91 90 84 100 100 92 91 77
20 21 42 64 83 83 65 56 51 27 17 17 20 22 16 14 13 14 17 28 41 51 59 75 69 60 92 73 100 96 48 41 68 92 84 78 86 84 86 83 83 66 63 65
31 21 39 47 69 78 59 46 31 18 14 10 8 7 7 11 12 18 25 40 48 61 86 91 96 68 100 94 100 100 69 50 49 60 100 100 94 84 99 95 76 77 100 99
47 23 38 43 60 71 52 40 30 12 10 9 7 7 10 21 36 53 72 77 82 88 97 97 100 80 79 94 98 100 100 84 73 100 67 88 100 100 100 100 91 81 66 62
43 26 42 46 58 75 53 49 42 17 11 26 40 44 59 64 72 87 98 92 99 100 100 100 100 86 82 90 100 97 95 100 96 69 81 98 100 98 94 90 93 100 99 99
26 34 52 51 63 72 54 44 32 29 27 82 80 82 94 92 100 100 98 99 100 100 100 100 100 89 100 100 90 95 84 87 92 76 84 99 100 95 99 100 100 100 100 100
25 53 65 58 70 67 49 44 42 39 56 90 76 90 99 100 100 97 99 98 99 100 100 94 92 91 95 99 100 95 95 96 95 100 86 93 100 100 100 100 98 95 100 100
46 62 70 65 69 58 53 57 62 62 78 81 81 82 80 78 72 73 79 85 87 92 96 96 97 100 98 95 94 97 96 89 95 100 100 100 100 100 100 100 99 100 100 100
71 74 80 76 65 61 53 61 62 81 80 83 89 81 87 84 87 84 86 92 93 92 94 99 100 100 100 100 100 100 100 100 100 100 100 100 99 100 100 99 98 100 100 100
91 86 86 84 90 82 77 67 73 88 92 91 91 89 96 99 100 100 100 100 100 100 100 100 100 100 100 100 100 100 100 100 100 100 100 100 100 100 100 100 98 100 100 100
87 94 98 99 94 91 86 89 100 96 96 92 97 98 99 100 100 100 100 100 100 100 100 100 100 100 100 100 100 100 100 100 100 100 100 100 100 100 100 100 100 100 100 98
93 100 100 100 98 93 99 100 100 100 98 95 95 100 100 100 100 100 100 100 100 100 100 100 100 100 100 100 100 100 100 100 100 100 100 100 100 100 100 98 98 97 98 100
99 100 100 99 97 100 100 100 100 100 100 100 99 100 100 100 100 100 99 100 100 100 100 100 100 100 100 100 100 100 100 100 100 100 100 100 100 100 100 100 100 100 100 100
100 100 100 97 100 100 100 100 100 100 100 100 100 100 100 100 100 100 100 100 100 100 100 100 100 100 100 100 100 100 100 100 100 100 100 100 100 100 100 99 98 92 87 82
100 100 100 100 100 100 100 100 100 100 100 99 99 100 100 100 100 100 100 100 100 100 100 100 100 100 100 100 100 100 100 100 99 97 93 88 82 79 76 74 73 70 68 67
100 100 100 100 100 100 100 100 100 100 100 100 100 100 100 100 100 100 100 100 100 100 100 100 100 100 100 100 100 92 84 77 74 73 71 70 67 63 60 61 59 56 55 55
Wind_Speed
29 30 25 30 29 30 22 14 10 12 20 27 29 31 41 49 47 40 35 36 43 51 61 66 73 71 62 65 65 65 61 61 62 62 62 60 58 56 55 53 52 52 40 39
24 27 19 21 23 21 19 12 15 19 26 40 32 38 34 35 46 50 42 31 28 32 45 57 65 69 70 64 64 64 65 65 63 62 62 61 59 57 56 55 54 52 47 47
21 23 22 18 23 22 14 12 9 27 17 20 25 25 33 35 37 36 32 29 34 33 37 42 57 60 63 63 64 62 65 63 64 63 62 61 60 59 58 57 56 55 52 51
18 21 25 20 21 20 19 6 6 17 17 24 26 23 29 38 36 32 23 25 32 33 32 36 45 55 54 57 59 61 63 61 61 62 61 61 60 61 60 60 59 57 57 55
16 17 19 14 7 9 10 7 7 6 12 31 30 27 27 37 24 21 28 29 30 36 40 38 39 42 44 50 55 56 56 57 57 56 57 57 57 57 56 58 58 58 58 57
13 13 17 13 9 8 8 1 5 12 12 27 23 26 26 24 31 34 25 23 23 29 34 37 41 48 50 47 51 51 47 48 51 54 54 51 52 54 55 56 55 54 56 57
9 11 13 12 10 9 5 7 4 8 21 23 23 25 24 29 27 28 22 29 19 23 27 31 32 38 45 50 46 48 47 45 47 45 46 46 44 45 45 46 49 52 53 52
4 5 7 8 10 11 12 6 13 17 16 16 19 22 20 21 25 22 18 20 22 22 24 23 25 29 32 38 44 47 45 45 45 46 44 44 45 48 47 46 48 48 50 51
8 4 4 4 8 11 19 16 16 11 10 10 18 17 20 19 23 21 19 17 18 19 22 23 22 26 28 30 33 39 45 46 44 44 42 43 44 46 43 44 46 46 46 48
14 9 4 1 3 9 15 16 16 17 13 13 21 20 20 17 14 14 16 13 13 13 17 21 26 26 28 28 29 34 35 36 41 41 42 40 37 38 39 40 40 41 42 42
22 16 10 4 4 5 10 14 14 14 14 14 20 15 14 15 16 16 14 13 12 15 17 18 19 25 29 28 27 27 32 36 38 41 41 39 37 35 36 40 37 40 40 37
28 24 17 10 7 8 10 9 10 10 13 15 15 14 13 12 11 10 8 7 10 13 20 19 19 23 28 30 28 26 26 32 36 36 36 35 37 35 32 36 35 33 37 38
31 32 24 16 12 12 11 10 9 10 13 13 11 11 10 9 7 9 11 13 15 14 19 17 19 20 23 32 30 29 27 27 30 27 28 31 32 32 36 40 37 37 39 38
32 37 29 22 17 16 14 11 9 8 7 7 5 7 7 11 15 14 15 15 18 20 20 19 19 23 24 33 18 26 25 31 33 29 24 32 28 30 31 31 31 38 33 29
31 38 33 24 20 18 16 13 10 6 3 2 3 7 11 13 14 13 14 18 21 23 19 21 22 21 20 20 25 17 36 31 36 36 33 29 31 27 30 26 27 30 34 33
27 37 33 25 21 19 16 13 7 4 3 5 5 6 9 12 12 10 14 18 18 19 21 21 24 24 23 23 22 23 21 23 27 33 37 32 26 29 28 30 30 30 28 26
25 35 32 25 22 18 13 12 8 8 8 6 4 6 8 8 8 10 13 16 18 19 20 21 22 26 27 26 25 23 22 22 21 30 35 35 28 25 29 28 25 25 27 25
27 32 29 25 22 18 15 15 12 10 10 8 6 8 7 8 11 10 13 16 16 17 18 20 21 23 22 23 25 25 25 24 28 29 32 35 26 26 31 26 27 26 26 26
30 30 27 23 21 16 15 12 10 10 11 9 8 7 6 6 7 10 13 15 16 18 18 19 21 22 22 22 22 24 25 23 23 25 28 31 32 28 25 28 28 29 30 30
29 27 24 21 18 15 14 12 9 9 11 7 8 5 2 3 4 6 8 12 15 18 19 19 20 20 21 22 22 22 23 24 26 27 28 26 26 29 32 32 33 32 32 31
27 24 22 18 16 15 12 12 12 12 11 9 8 6 6 8 9 13 15 15 13 16 21 22 23 22 21 21 21 21 22 25 26 26 28 28 27 27 28 27 29 30 29 29
22 21 19 17 14 12 10 15 14 11 12 11 10 11 14 14 13 16 22 21 19 19 19 19 20 21 21 19 17 17 20 21 22 23 22 23 25 25 25 24 21 19 17 15
20 19 18 15 14 9 12 13 14 14 13 14 14 15 16 15 13 14 16 16 19 23 25 25 24 22 21 20 18 18 18 19 20 19 19 19 18 16 14 12 11 11 12 13
22 19 17 15 13 11 13 14 15 16 16 17 16 16 15 14 13 14 16 14 13 15 18 17 17 17 18 18 17 17 16 15 14 13 13 12 12 11 11 12 12 13 14 14
19 17 15 14 12 12 14 15 16 17 16 15 16 16 15 14 14 15 15 15 15 14 16 15 14 14 14 14 14 14 14 14 13 13 12 12 11 11 10 10 11 12 14 17
17 15 13 13 12 12 14 16 17 18 18 19 19 19 19 19 19 18 17 17 16 16 16 16 16 16 16 15 13 11 9 8 8 7 7 7 8 9 11 13 14 16 18 21
16 14 13 12 13 15 15 16 18 19 20 20 20 20 19 20 21 20 20 20 19 19 18 18 16 15 14 12 10 8 8 7 7 8 9 11 13 15 18 20 22 24 26 27
Wind_Direction
360 9 11 17 11 7 31 64 72 36 106 105 136 138 145 138 140 149 172 190 202 208 209 208 205 205 203 209 210 210 211 212 213 215 216 217 219 222 223 224 229 232 231 229
5 15 18 29 28 7 33 67 80 53 92 108 110 128 144 142 142 146 149 162 182 199 211 212 210 208 207 208 212 213 214 217 218 217 218 220 222 224 226 228 232 235 234 234
13 19 22 37 39 33 35 41 88 62 103 121 126 125 121 153 156 161 166 168 179 183 189 202 212 212 210 211 213 215 218 217 219 221 222 224 225 227 230 232 233 237 239 239
6 23 22 23 31 36 41 63 73 65 97 144 136 156 130 148 144 139 153 159 167 176 187 198 209 212 211 212 213 217 220 220 221 223 224 226 228 231 233 235 236 238 241 241
5 27 29 32 61 49 51 115 40 32 77 138 115 159 142 159 143 138 142 160 167 174 181 185 184 193 202 207 213 218 220 223 222 223 225 227 228 231 233 235 238 239 240 242
358 19 28 32 48 68 48 306 62 56 89 110 94 111 137 138 145 141 147 153 165 169 175 181 188 188 192 199 207 213 214 218 225 228 230 231 232 233 234 235 237 240 241 243
357 7 25 35 40 92 144 103 36 90 112 121 109 108 117 118 143 149 139 159 155 163 168 177 185 192 195 195 199 205 211 211 216 221 225 229 231 231 233 235 237 237 239 239
311 348 26 35 39 117 134 150 125 121 125 130 126 120 125 130 139 156 156 155 165 160 170 178 185 190 198 204 206 205 204 210 214 217 224 225 227 230 230 232 231 235 236 238
246 276 346 48 63 84 107 150 139 146 142 149 148 141 130 137 143 146 151 160 172 180 191 197 204 202 198 198 204 209 210 212 212 214 218 223 225 227 226 228 231 232 235 239
225 225 259 30 64 97 109 107 121 153 167 160 166 155 142 152 162 160 160 167 165 172 193 195 194 198 201 196 198 202 207 211 215 218 220 222 224 225 227 230 233 232 235 237
221 219 219 203 157 116 111 109 113 115 138 126 150 148 163 158 161 162 165 177 188 200 197 195 196 198 197 199 202 201 206 207 211 215 218 218 221 225 226 222 229 234 232 236
224 213 209 204 179 162 151 160 149 147 142 147 154 159 163 170 173 178 182 210 230 214 210 209 206 199 198 195 199 204 202 207 211 214 215 218 223 225 218 209 221 230 235 235
223 205 206 197 188 174 170 166 163 148 143 152 166 178 180 186 203 214 224 212 219 212 210 207 191 186 185 184 194 208 201 202 205 208 208 213 213 213 211 216 225 221 230 232
211 198 198 193 190 182 178 181 175 158 138 142 151 180 194 213 223 234 230 230 215 203 204 203 195 191 200 195 187 188 197 200 200 205 209 198 207 214 219 219 222 229 225 233
200 191 192 191 190 183 184 180 176 154 110 194 245 222 217 227 233 234 227 208 195 195 206 198 197 198 201 204 206 189 192 206 192 201 207 211 217 214 207 220 230 229 234 237
194 185 188 189 187 184 178 177 172 177 288 277 255 243 242 236 238 218 194 187 194 197 195 196 194 193 196 193 192 202 188 194 205 204 207 208 213 215 224 232 234 224 232 247
189 180 182 183 184 183 183 182 190 215 247 241 232 266 241 234 234 221 210 207 201 198 200 205 201 196 195 197 195 191 196 200 203 204 207 207 216 222 225 232 229 234 241 240
180 175 177 179 183 187 190 190 201 222 236 222 233 225 220 219 218 227 224 219 217 209 206 201 199 198 199 201 201 201 203 205 206 205 210 214 212 222 218 215 218 223 235 242
171 174 177 177 182 190 195 201 206 225 231 216 223 209 213 230 246 232 223 219 212 206 202 199 199 199 201 201 202 204 205 211 214 212 212 209 211 213 215 222 230 235 241 246
163 172 175 174 179 188 196 213 227 228 216 215 204 176 211 281 273 253 227 216 209 204 199 196 196 195 195 199 205 209 213 213 214 215 216 219 224 226 224 229 236 242 249 251
160 167 170 171 173 183 197 221 217 200 201 203 171 155 160 140 132 136 144 139 155 179 189 192 194 194 194 197 199 202 207 210 208 212 217 221 223 225 228 234 241 239 241 245
160 173 171 173 176 188 216 206 193 188 193 172 157 164 163 147 134 118 111 112 124 138 149 162 174 181 184 188 191 196 199 201 203 205 208 208 211 216 225 228 227 227 226 225
173 175 176 181 187 207 197 182 177 178 168 160 159 167 166 159 147 135 115 116 121 119 118 118 123 131 140 148 154 161 169 173 172 173 173 172 171 174 181 191 202 213 222 228
180 182 186 189 200 197 177 166 167 164 165 162 158 161 165 162 159 149 130 131 131 127 120 120 123 125 128 129 131 134 138 143 149 157 166 174 180 187 195 202 211 220 229 238
187 189 190 201 192 182 166 161 162 164 167 166 161 160 162 166 171 158 147 147 145 142 136 137 140 142 145 147 152 156 160 164 171 177 184 192 201 209 220 233 245 255 262 266
192 193 200 192 182 177 168 164 167 169 170 174 170 165 167 170 169 166 168 169 172 172 168 164 166 165 165 162 160 159 162 168 179 190 204 222 237 249 257 264 270 277 280 283
198 202 196 185 184 178 174 173 175 174 177 176 175 172 176 180 178 175 175 174 173 174 174 174 175 177 180 183 184 189 208 225 238 250 262 271 275 277 277 276 277 277 278 278